Time,TemperatureF,DewpointF,PressureIn,WindDirection,WindDirectionDegrees,WindSpeedMPH,WindSpeedGustMPH,Humidity,HourlyPrecipIn,Conditions,Clouds,dailyrainin,SoftwareType,DateUTC
2013-01-01 00:03:00,32.0,22.0,29.78,West,270,0.0,0.0,67,0.00,,,0.00,,2013-01-01 05:03:00,
2013-01-01 00:12:00,32.0,22.0,29.78,West,270,0.0,0.0,67,0.00,,,0.00,,2013-01-01 05:12:00,
2013-01-01 00:22:00,32.0,22.0,29.79,West,270,0.0,0.0,67,0.00,,,0.00,,2013-01-01 05:22:00,
2013-01-01 00:33:00,32.0,22.0,29.77,West,270,0.0,0.0,67,0.00,,,0.00,,2013-01-01 05:33:00,
2013-01-01 00:42:00,32.0,22.0,29.77,West,270,0.0,0.0,67,0.00,,,0.00,,2013-01-01 05:42:00,
2013-01-01 00:52:00,32.0,22.0,29.77,WNW,293,0.0,2.0,67,0.00,,,0.00,,2013-01-01 05:52:00,
2013-01-01 01:02:00,32.0,22.0,29.77,West,270,0.0,3.0,67,0.00,,,0.00,,2013-01-01 06:02:00,
2013-01-01 01:12:00,32.0,22.0,29.77,West,270,0.0,3.0,67,0.00,,,0.00,,2013-01-01 06:12:00,
2013-01-01 01:22:00,32.0,22.0,29.77,WNW,293,3.0,3.0,67,0.00,,,0.00,,2013-01-01 06:22:00,
2013-01-01 01:32:00,33.0,23.0,29.76,WSW,248,0.0,0.0,67,0.00,,,0.00,,2013-01-01 06:32:00,
2013-01-01 01:42:00,33.0,23.0,29.76,WSW,248,0.0,0.0,67,0.00,,,0.00,,2013-01-01 06:42:00,
2013-01-01 01:52:00,33.0,23.0,29.76,WNW,293,0.0,6.0,66,0.00,,,0.00,,2013-01-01 06:52:00,
2013-01-01 02:02:00,33.0,23.0,29.77,West,270,3.0,5.0,66,0.00,,,0.00,,2013-01-01 07:02:00,
2013-01-01 02:12:00,33.0,23.0,29.77,West,270,0.0,6.0,66,0.00,,,0.00,,2013-01-01 07:12:00,
2013-01-01 02:22:00,33.0,23.0,29.77,West,270,0.0,6.0,66,0.00,,,0.00,,2013-01-01 07:22:00,
2013-01-01 02:32:00,33.0,23.0,29.77,West,270,2.0,5.0,66,0.00,,,0.00,,2013-01-01 07:32:00,
2013-01-01 02:42:00,33.0,23.0,29.77,West,270,2.0,5.0,66,0.00,,,0.00,,2013-01-01 07:42:00,
2013-01-01 02:52:00,33.0,23.0,29.77,West,270,0.0,7.0,66,0.00,,,0.00,,2013-01-01 07:52:00,
2013-01-01 03:02:00,33.0,23.0,29.77,WNW,293,0.0,5.0,66,0.00,,,0.00,,2013-01-01 08:02:00,
2013-01-01 03:12:00,33.0,23.0,29.77,WNW,293,0.0,5.0,66,0.00,,,0.00,,2013-01-01 08:12:00,
2013-01-01 03:22:00,33.0,23.0,29.76,West,270,0.0,3.0,67,0.00,,,0.00,,2013-01-01 08:22:00,
2013-01-01 03:32:00,33.0,23.0,29.75,West,270,2.0,6.0,67,0.00,,,0.00,,2013-01-01 08:32:00,
2013-01-01 03:42:00,33.0,24.0,29.75,WNW,293,0.0,3.0,68,0.00,,,0.00,,2013-01-01 08:42:00,
2013-01-01 03:53:00,33.0,24.0,29.75,WNW,293,0.0,3.0,68,0.00,,,0.00,,2013-01-01 08:53:00,
2013-01-01 04:02:00,32.0,23.0,29.75,West,270,0.0,2.0,68,0.00,,,0.00,,2013-01-01 09:02:00,
2013-01-01 04:12:00,32.0,23.0,29.75,West,270,0.0,2.0,68,0.00,,,0.00,,2013-01-01 09:12:00,
2013-01-01 04:22:00,32.0,23.0,29.75,WNW,293,0.0,2.0,69,0.00,,,0.00,,2013-01-01 09:22:00,
2013-01-01 04:32:00,32.0,23.0,29.75,West,270,0.0,0.0,70,0.00,,,0.00,,2013-01-01 09:32:00,
2013-01-01 04:42:00,32.0,23.0,29.75,West,270,0.0,0.0,70,0.00,,,0.00,,2013-01-01 09:42:00,
2013-01-01 04:52:00,32.0,23.0,29.76,West,270,1.0,2.0,70,0.00,,,0.00,,2013-01-01 09:52:00,
2013-01-01 05:02:00,31.0,23.0,29.76,West,270,0.0,0.0,71,0.00,,,0.00,,2013-01-01 10:02:00,
2013-01-01 05:12:00,31.0,23.0,29.75,West,270,5.0,5.0,71,0.00,,,0.00,,2013-01-01 10:12:00,
2013-01-01 05:22:00,31.0,23.0,29.75,West,270,5.0,5.0,71,0.00,,,0.00,,2013-01-01 10:22:00,
2013-01-01 05:33:00,31.0,23.0,29.76,West,270,0.0,2.0,72,0.00,,,0.00,,2013-01-01 10:33:00,
2013-01-01 05:42:00,31.0,23.0,29.76,West,270,0.0,2.0,72,0.00,,,0.00,,2013-01-01 10:42:00,
2013-01-01 05:52:00,31.0,23.0,29.76,West,270,0.0,0.0,72,0.00,,,0.00,,2013-01-01 10:52:00,
2013-01-01 06:02:00,30.0,22.0,29.77,West,270,0.0,0.0,73,0.00,,,0.00,,2013-01-01 11:02:00,
2013-01-01 06:12:00,30.0,22.0,29.77,West,270,0.0,0.0,73,0.00,,,0.00,,2013-01-01 11:12:00,
2013-01-01 06:23:00,30.0,22.0,29.76,West,270,0.0,0.0,73,0.00,,,0.00,,2013-01-01 11:23:00,
2013-01-01 06:33:00,30.0,23.0,29.76,WSW,248,0.0,0.0,74,0.00,,,0.00,,2013-01-01 11:33:00,
2013-01-01 06:42:00,30.0,23.0,29.76,WSW,248,0.0,0.0,74,0.00,,,0.00,,2013-01-01 11:42:00,
2013-01-01 06:53:00,30.0,23.0,29.76,WSW,248,0.0,0.0,74,0.00,,,0.00,,2013-01-01 11:53:00,
2013-01-01 07:03:00,30.0,23.0,29.77,West,270,0.0,0.0,74,0.00,,,0.00,,2013-01-01 12:03:00,
2013-01-01 07:12:00,30.0,23.0,29.77,West,270,0.0,0.0,74,0.00,,,0.00,,2013-01-01 12:12:00,
2013-01-01 07:22:00,30.0,23.0,29.77,West,270,0.0,0.0,75,0.00,,,0.00,,2013-01-01 12:22:00,
2013-01-01 07:33:00,30.0,23.0,29.77,WSW,248,0.0,0.0,75,0.00,,,0.00,,2013-01-01 12:33:00,
2013-01-01 07:43:00,30.0,23.0,29.77,WSW,248,0.0,0.0,75,0.00,,,0.00,,2013-01-01 12:43:00,
2013-01-01 07:52:00,30.0,23.0,29.77,West,270,0.0,0.0,75,0.00,,,0.00,,2013-01-01 12:52:00,
2013-01-01 08:03:00,30.0,23.0,29.76,West,270,0.0,0.0,75,0.00,,,0.00,,2013-01-01 13:03:00,
2013-01-01 08:12:00,30.0,23.0,29.76,West,270,0.0,0.0,75,0.00,,,0.00,,2013-01-01 13:12:00,
2013-01-01 08:22:00,30.0,23.0,29.77,West,270,0.0,0.0,75,0.00,,,0.00,,2013-01-01 13:22:00,
2013-01-01 08:33:00,31.0,24.0,29.77,West,270,0.0,0.0,75,0.00,,,0.00,,2013-01-01 13:33:00,
2013-01-01 08:43:00,31.0,24.0,29.77,West,270,0.0,0.0,75,0.00,,,0.00,,2013-01-01 13:43:00,
2013-01-01 08:52:00,32.0,25.0,29.78,West,270,0.0,0.0,75,0.00,,,0.00,,2013-01-01 13:52:00,
2013-01-01 09:02:00,33.0,25.0,29.77,West,270,0.0,0.0,73,0.00,,,0.00,,2013-01-01 14:02:00,
2013-01-01 09:12:00,33.0,25.0,29.77,West,270,0.0,0.0,73,0.00,,,0.00,,2013-01-01 14:12:00,
2013-01-01 09:22:00,34.0,26.0,29.78,WNW,293,0.0,0.0,73,0.00,,,0.00,,2013-01-01 14:22:00,
2013-01-01 09:32:00,36.0,27.0,29.79,NE,45,0.0,1.0,70,0.00,,,0.00,,2013-01-01 14:32:00,
2013-01-01 09:42:00,36.0,27.0,29.79,NE,45,0.0,1.0,70,0.00,,,0.00,,2013-01-01 14:42:00,
2013-01-01 09:53:00,35.0,26.0,29.80,NNW,336,5.0,9.0,69,0.00,,,0.00,,2013-01-01 14:53:00,
2013-01-01 10:03:00,36.0,27.0,29.80,NNW,346,7.0,7.0,69,0.00,,,0.00,,2013-01-01 15:03:00,
2013-01-01 10:12:00,36.0,26.0,29.81,NNW,329,5.0,7.0,68,0.00,,,0.00,,2013-01-01 15:12:00,
2013-01-01 10:22:00,36.0,26.0,29.81,NNW,329,5.0,7.0,68,0.00,,,0.00,,2013-01-01 15:22:00,
2013-01-01 10:33:00,37.0,27.0,29.81,North,359,6.0,6.0,67,0.00,,,0.00,,2013-01-01 15:33:00,
2013-01-01 10:42:00,37.0,27.0,29.81,North,359,6.0,6.0,67,0.00,,,0.00,,2013-01-01 15:42:00,
2013-01-01 10:53:00,37.0,26.0,29.80,NW,315,0.0,11.0,63,0.00,,,0.00,,2013-01-01 15:53:00,
2013-01-01 11:02:00,37.0,25.0,29.79,NNW,347,4.0,6.0,62,0.00,,,0.00,,2013-01-01 16:02:00,
2013-01-01 11:12:00,37.0,25.0,29.79,NNW,347,4.0,6.0,62,0.00,,,0.00,,2013-01-01 16:12:00,
2013-01-01 11:22:00,36.0,23.0,29.78,West,270,8.0,9.0,60,0.00,,,0.00,,2013-01-01 16:22:00,
2013-01-01 11:33:00,37.0,24.0,29.78,NW,315,6.0,10.0,58,0.00,,,0.00,,2013-01-01 16:33:00,
2013-01-01 11:42:00,37.0,24.0,29.78,NW,315,6.0,10.0,58,0.00,,,0.00,,2013-01-01 16:42:00,
2013-01-01 11:52:00,37.0,24.0,29.79,West,278,2.0,5.0,59,0.00,,,0.00,,2013-01-01 16:52:00,
2013-01-01 12:02:00,37.0,24.0,29.78,NNE,23,0.0,8.0,58,0.00,,,0.00,,2013-01-01 17:02:00,
2013-01-01 12:12:00,37.0,24.0,29.78,NNE,23,0.0,8.0,58,0.00,,,0.00,,2013-01-01 17:12:00,
2013-01-01 12:22:00,37.0,24.0,29.77,NW,315,3.0,8.0,58,0.00,,,0.00,,2013-01-01 17:22:00,
2013-01-01 12:33:00,36.0,22.0,29.76,NNW,329,5.0,8.0,57,0.00,,,0.00,,2013-01-01 17:33:00,
2013-01-01 12:43:00,36.0,22.0,29.76,NNW,329,5.0,8.0,57,0.00,,,0.00,,2013-01-01 17:43:00,
2013-01-01 12:52:00,36.0,22.0,29.75,WNW,293,3.0,10.0,57,0.00,,,0.00,,2013-01-01 17:52:00,
2013-01-01 13:03:00,35.0,21.0,29.75,West,270,7.0,9.0,57,0.00,,,0.00,,2013-01-01 18:03:00,
2013-01-01 13:12:00,35.0,21.0,29.75,West,270,7.0,9.0,57,0.00,,,0.00,,2013-01-01 18:12:00,
2013-01-01 13:22:00,34.0,20.0,29.76,NW,315,7.0,7.0,57,0.00,,,0.00,,2013-01-01 18:22:00,
2013-01-01 13:33:00,35.0,21.0,29.77,NNW,329,3.0,7.0,57,0.00,,,0.00,,2013-01-01 18:33:00,
2013-01-01 13:42:00,35.0,21.0,29.77,NNW,329,3.0,7.0,57,0.00,,,0.00,,2013-01-01 18:42:00,
2013-01-01 13:52:00,35.0,21.0,29.77,NNW,329,3.0,7.0,57,0.00,,,0.00,,2013-01-01 18:52:00,
2013-01-01 14:02:00,35.0,21.0,29.76,WNW,295,7.0,8.0,57,0.00,,,0.00,,2013-01-01 19:02:00,
2013-01-01 14:12:00,35.0,21.0,29.76,WNW,295,7.0,8.0,57,0.00,,,0.00,,2013-01-01 19:12:00,
2013-01-01 14:22:00,34.0,20.0,29.75,NW,319,3.0,7.0,57,0.00,,,0.00,,2013-01-01 19:22:00,
2013-01-01 14:33:00,34.0,20.0,29.76,West,281,6.0,8.0,57,0.00,,,0.00,,2013-01-01 19:33:00,
2013-01-01 14:42:00,34.0,20.0,29.76,West,281,6.0,8.0,57,0.00,,,0.00,,2013-01-01 19:42:00,
2013-01-01 14:53:00,34.0,21.0,29.77,NE,45,0.0,6.0,58,0.00,,,0.00,,2013-01-01 19:53:00,
2013-01-01 15:02:00,34.0,21.0,29.76,WNW,302,5.0,7.0,58,0.00,,,0.00,,2013-01-01 20:02:00,
2013-01-01 15:12:00,34.0,21.0,29.76,WNW,302,5.0,7.0,58,0.00,,,0.00,,2013-01-01 20:12:00,
2013-01-01 15:23:00,33.0,20.0,29.76,NE,45,4.0,6.0,58,0.00,,,0.00,,2013-01-01 20:23:00,
2013-01-01 15:32:00,33.0,20.0,29.76,NW,318,5.0,8.0,58,0.00,,,0.00,,2013-01-01 20:32:00,
2013-01-01 15:42:00,33.0,20.0,29.76,NW,318,5.0,8.0,58,0.00,,,0.00,,2013-01-01 20:42:00,
2013-01-01 15:53:00,32.0,19.0,29.77,NNW,328,6.0,10.0,58,0.00,,,0.00,,2013-01-01 20:53:00,
2013-01-01 16:03:00,32.0,19.0,29.77,NNW,338,10.0,13.0,57,0.00,,,0.00,,2013-01-01 21:03:00,
2013-01-01 16:13:00,31.0,18.0,29.78,WNW,293,5.0,10.0,57,0.00,,,0.00,,2013-01-01 21:13:00,
2013-01-01 16:22:00,31.0,18.0,29.78,WNW,293,5.0,10.0,57,0.00,,,0.00,,2013-01-01 21:22:00,
2013-01-01 16:33:00,30.0,17.0,29.79,NE,45,3.0,4.0,57,0.00,,,0.00,,2013-01-01 21:33:00,
2013-01-01 16:42:00,30.0,17.0,29.79,NE,45,3.0,4.0,57,0.00,,,0.00,,2013-01-01 21:42:00,
2013-01-01 16:53:00,29.0,15.0,29.80,WNW,293,8.0,13.0,55,0.00,,,0.00,,2013-01-01 21:53:00,
2013-01-01 17:03:00,29.0,15.0,29.80,North,0,0.0,9.0,56,0.00,,,0.00,,2013-01-01 22:03:00,
2013-01-01 17:12:00,29.0,15.0,29.80,North,0,0.0,9.0,56,0.00,,,0.00,,2013-01-01 22:12:00,
2013-01-01 17:22:00,28.0,14.0,29.82,NNE,23,6.0,8.0,55,0.00,,,0.00,,2013-01-01 22:22:00,
2013-01-01 17:33:00,27.0,13.0,29.83,West,270,2.0,10.0,55,0.00,,,0.00,,2013-01-01 22:33:00,
2013-01-01 17:42:00,27.0,13.0,29.83,West,270,2.0,10.0,55,0.00,,,0.00,,2013-01-01 22:42:00,
2013-01-01 17:53:00,26.0,12.0,29.83,WNW,294,2.0,9.0,56,0.00,,,0.00,,2013-01-01 22:53:00,
2013-01-01 18:03:00,26.0,12.0,29.83,NNW,338,8.0,8.0,56,0.00,,,0.00,,2013-01-01 23:03:00,
2013-01-01 18:12:00,26.0,12.0,29.83,NNW,338,8.0,8.0,56,0.00,,,0.00,,2013-01-01 23:12:00,
2013-01-01 18:22:00,26.0,13.0,29.84,NNW,332,7.0,9.0,57,0.00,,,0.00,,2013-01-01 23:22:00,
2013-01-01 18:32:00,26.0,13.0,29.85,NW,315,3.0,8.0,57,0.00,,,0.00,,2013-01-01 23:32:00,
2013-01-01 18:42:00,26.0,13.0,29.85,NW,315,3.0,8.0,57,0.00,,,0.00,,2013-01-01 23:42:00,
2013-01-01 18:53:00,26.0,13.0,29.85,WNW,302,6.0,9.0,57,0.00,,,0.00,,2013-01-01 23:53:00,
2013-01-01 19:02:00,26.0,13.0,29.85,WNW,283,3.0,11.0,57,0.00,,,0.00,,2013-01-02 00:02:00,
2013-01-01 19:12:00,26.0,13.0,29.85,WNW,283,3.0,11.0,57,0.00,,,0.00,,2013-01-02 00:12:00,
2013-01-01 19:22:00,26.0,13.0,29.86,NW,310,6.0,10.0,57,0.00,,,0.00,,2013-01-02 00:22:00,
2013-01-01 19:32:00,25.0,12.0,29.86,NW,325,4.0,10.0,57,0.00,,,0.00,,2013-01-02 00:32:00,
2013-01-01 19:42:00,25.0,12.0,29.86,NW,325,4.0,10.0,57,0.00,,,0.00,,2013-01-02 00:42:00,
2013-01-01 19:53:00,25.0,12.0,29.85,NNE,20,6.0,10.0,56,0.00,,,0.00,,2013-01-02 00:53:00,
2013-01-01 20:02:00,25.0,12.0,29.87,West,270,2.0,8.0,56,0.00,,,0.00,,2013-01-02 01:02:00,
2013-01-01 20:12:00,25.0,12.0,29.87,West,270,2.0,8.0,56,0.00,,,0.00,,2013-01-02 01:12:00,
2013-01-01 20:22:00,24.0,11.0,29.88,NNE,27,5.0,7.0,57,0.00,,,0.00,,2013-01-02 01:22:00,
2013-01-01 20:32:00,24.0,11.0,29.87,NNW,338,1.0,6.0,58,0.00,,,0.00,,2013-01-02 01:32:00,
2013-01-01 20:42:00,24.0,11.0,29.87,NNW,338,1.0,6.0,58,0.00,,,0.00,,2013-01-02 01:42:00,
2013-01-01 20:52:00,23.0,10.0,29.87,NW,315,2.0,7.0,58,0.00,,,0.00,,2013-01-02 01:52:00,
2013-01-01 21:02:00,23.0,10.0,29.87,WNW,293,4.0,5.0,58,0.00,,,0.00,,2013-01-02 02:02:00,
2013-01-01 21:12:00,23.0,10.0,29.87,WNW,293,4.0,5.0,58,0.00,,,0.00,,2013-01-02 02:12:00,
2013-01-01 21:22:00,23.0,10.0,29.88,West,270,8.0,11.0,58,0.00,,,0.00,,2013-01-02 02:22:00,
2013-01-01 21:32:00,22.0,10.0,29.88,West,270,3.0,5.0,58,0.00,,,0.00,,2013-01-02 02:32:00,
2013-01-01 21:42:00,22.0,10.0,29.88,West,270,3.0,5.0,58,0.00,,,0.00,,2013-01-02 02:42:00,
2013-01-01 21:53:00,22.0,10.0,29.89,NW,315,0.0,5.0,58,0.00,,,0.00,,2013-01-02 02:53:00,
2013-01-01 22:02:00,21.0,9.0,29.89,WNW,285,2.0,3.0,59,0.00,,,0.00,,2013-01-02 03:02:00,
2013-01-01 22:12:00,21.0,9.0,29.89,WNW,285,2.0,3.0,59,0.00,,,0.00,,2013-01-02 03:12:00,
2013-01-01 22:22:00,20.0,8.0,29.89,West,270,2.0,4.0,59,0.00,,,0.00,,2013-01-02 03:22:00,
2013-01-01 22:32:00,20.0,8.0,29.89,West,270,2.0,4.0,59,0.00,,,0.00,,2013-01-02 03:32:00,
2013-01-01 22:42:00,20.0,8.0,29.89,West,270,2.0,4.0,59,0.00,,,0.00,,2013-01-02 03:42:00,
2013-01-01 22:53:00,20.0,8.0,29.90,WNW,293,0.0,6.0,59,0.00,,,0.00,,2013-01-02 03:53:00,
2013-01-01 23:02:00,20.0,8.0,29.90,NW,315,0.0,6.0,59,0.00,,,0.00,,2013-01-02 04:02:00,
2013-01-01 23:12:00,20.0,8.0,29.90,NW,315,0.0,6.0,59,0.00,,,0.00,,2013-01-02 04:12:00,
2013-01-01 23:22:00,19.0,7.0,29.90,WNW,293,4.0,8.0,60,0.00,,,0.00,,2013-01-02 04:22:00,
2013-01-01 23:32:00,19.0,7.0,29.90,West,274,3.0,6.0,60,0.00,,,0.00,,2013-01-02 04:32:00,
2013-01-01 23:42:00,19.0,7.0,29.90,West,274,3.0,6.0,60,0.00,,,0.00,,2013-01-02 04:42:00,
2013-01-01 23:52:00,18.0,7.0,29.91,WNW,293,4.0,4.0,61,0.00,,,0.00,,2013-01-02 04:52:00,